コマス・ソラ彗星

32P/Comas Sola (2005)

English version
Home page
Updated on September 3, 2006

---------------------------------------------------------------------

・ プロフィール

・ 写真集

・ 軌道要素

The following orbital elements are taken from MPC 52907: 

Epoch 2005 Apr. 20.0 TT = JDT 2453480.5
T 2005 Apr. 1.3365 TT                                   MPC
q   1.833017             (2000.0)            P               Q
n   0.1122797      Peri.   45.8250      -0.2701547      -0.9428061
a   4.255349       Node    60.7949      +0.8071902      -0.3323392
e   0.569244       Incl.   12.9274      +0.5248432      +0.0258313
P   8.78
From 338 observations 1986-2004, mean residual 0".8.  Nongravitational
     parameters A1 = +0.52, A2 = -0.0946.

・ 星図

・ 光度変化

        m1 =  5.3 + 5 logΔ + 22.5 log r  [   ,300]  (              〜2006年 1月26日)
        m1 = -6.7 + 5 logΔ + 40   log r  [300,   ]  (2006年 1月26日〜              )

---------------------------------------------------------------------

軌道要素はMPCのEphemerides and Orbital Elementsに掲載されたものです。
星図は StellaNavigator Ver.2.0 for Windows (アストロアーツ 編著 / アスキー出版局刊) で作成したものです。
光度グラフはComet for Windowsで作成したものです。

---------------------------------------------------------------------

Copyright(C) Seiichi Yoshida (comet@aerith.net). All rights reserved.